Location: Barrialito
(10.1025°N, 66.8154°W)
Time: 09:01:14
(UTC+00:00)

Hubble Space Telescope - Visible Passes

Search period start: 08 November 2024 00:00
Search period end: 18 November 2024 00:00
Orbit: 501 x 505 km, 28.5° (Epoch: 07 November)

Date Brightness Start Highest point End Pass type
(mag) Time Alt. Az. Time Alt. Az. Time Alt. Az.
08 Nov 4.0 07:54:34 11° E 07:54:34 11° E 07:54:46 10° E visible
08 Nov 0.9 09:29:14 19° W 09:31:50 49° NNW 09:35:37 10° NE visible
09 Nov 1.0 09:09:05 40° NW 09:09:38 42° NNW 09:13:22 10° NE visible
10 Nov 2.0 08:48:46 28° NNE 08:48:46 28° NNE 08:51:04 10° NE visible
11 Nov 3.3 08:28:19 12° NE 08:28:19 12° NE 08:28:44 10° NE visible
